Regional Weather Roundup
Issued by NWS

Home | Current Version | Previous Version | Text Only | Print | Product List | Glossary On
Versions: 1 2 3 4 5 6 7 8 9 10 11 12 13 14 15 16 17 18 19 20 21 22 23 24 25 26 27 28 29 30 31 32 33 34 35 36 37 38 39 40 41 42 43 44 45 46 47 48 49 50
000
ASUS43 KMPX 170910
RWRMN
WEATHER ROUNDUP FOR MINNESOTA
NATIONAL WEATHER SERVICE TWIN CITIES/CHANHASSEN MN
400 AM CDT THU APR 17 2014


NOTE: "FAIR" INDICATES FEW OR NO CLOUDS BELOW 12,000 FEET WITH NO
SIGNIFICANT WEATHER AND/OR OBSTRUCTIONS TO VISIBILITY. N/A MEANS
CURRENT SKY AND/OR WEATHER CONDITIONS ARE NOT AVAILABLE.

MNZ060>063-068>070-171000-
   Twin Cities Metro

CITY           SKY/WX    TMP DP  RH WIND       PRES   REMARKS
TWIN CITIES    CLOUDY    28  28 100 N16G26    30.03R WCI  16
ST PAUL        CLOUDY    30  27  88 N14G20    30.04R WCI  19
CRYSTAL        LGT SNOW  29  26  89 N14       30.04R FOG     WCI  18
BLAINE         CLOUDY    30  30 100 N13       30.04R WCI  20
EDEN PRAIRIE   CLOUDY    30  27  88 N14G22    30.02R WCI  19
LAKEVILLE      CLOUDY    28  27  93 NW17G23   30.01R WCI  16
SOUTH ST PAUL  CLOUDY    32  31  96 N13G20    30.02R WCI  22
LAKE ELMO      CLOUDY    30  28  93 N12       30.02R WCI  21
$$
MNZ001>005-007-008-013>017-022>024-027-028-171000-
   Northwest Minnesota

CITY           SKY/WX    TMP DP  RH WIND       PRES   REMARKS
BEMIDJI        CLEAR     21   9  61 N5        30.23R WCI  14
HALLOCK        CLOUDY    23  12  63 N5        30.33S WCI  17
ROSEAU         CLEAR     19  12  73 N3        30.31S
WARROAD        CLEAR     21   9  58 N8        30.31S WCI  12
THIEF RVR FALL CLEAR     23  10  58 N7        30.30R WCI  15
CROOKSTON      CLEAR     23  18  80 NE5       30.30S WCI  17
FOSSTON        CLEAR     19  12  73 N6        30.26R WCI  11
DETROIT LAKES  CLEAR     27  19  74 N6        30.23S WCI  20
MOORHEAD       CLEAR     27  23  86 N8        30.28R WCI  18
PARK RAPIDS    CLEAR     22  16  78 N8        30.19S WCI  12
$$
MNZ006-009>011-018-025>026-171000-
   North Central Minnesota

CITY           SKY/WX    TMP DP  RH WIND       PRES   REMARKS
BAUDETTE       CLEAR     21   6  52 NE5       30.28S WCI  15
FLAG ISLAND    CLEAR     19   5  53 N5        30.31S WCI  13
INTL FALLS     CLEAR     22   8  55 N5        30.26S WCI  16
WASKISH        CLEAR     21   9  58 NE5       30.26S WCI  15
BIG FORK       MOCLDY    25  16  68 N5        30.22S WCI  19
LONGVILLE      PTCLDY    23  19  86 N5        30.19R WCI  17
GRAND RAPIDS   CLOUDY    25  18  74 N10       30.17S WCI  15
CRANE LAKE     MOCLDY    23  12  63 CALM      30.26S
ORR            CLOUDY    25  16  68 N3        30.19S
COOK           LGT SNOW  23  19  86 NE5       30.20S WCI  17
$$
MNZ012-019>021-037-171000-
   Northeast Minnesota

CITY           SKY/WX    TMP DP  RH WIND       PRES   REMARKS
DULUTH         LGT SNOW  29  25  85 NE16      30.10S VSB 1   WCI  17
ELY            LGT SNOW  21  21 100 N6        30.18S WCI  14
HIBBING        CLOUDY    26  20  77 N10       30.16S WCI  16
EVELETH        LGT SNOW  27  21  80 NE12      30.15F WCI  16
DULUTH HARBOR  LGT SNOW  30  28  93 NE20      30.14S WCI  18
TWO HARBORS    LGT SNOW  28  23  80 NE20G25   30.10F WCI  15
SILVER BAY     LGT SNOW  27  27 100 NE18G25   30.12F WCI  13
GRAND MARAIS     N/A     30  27  88 NE18G29   30.21F WCI  18
G MARAIS ARPRT LGT SNOW  25  19  80 NE16G26   30.16F WCI  12
$$
MNZ029>031-032-039>041-046>048-054>057-064-171000-
   West Central Minnesota

CITY           SKY/WX    TMP DP  RH WIND       PRES   REMARKS
FERGUS FALLS   CLEAR     25  18  74 N6        30.21S WCI  18
WHEATON        CLEAR     25  21  86 N6        30.26R WCI  18
MORRIS         CLEAR     21  18  86 N12       30.20R WCI   9
ALEXANDRIA     CLEAR     22  17  81 N12       30.17R WCI  10
ELBOW LAKE     FAIR      22  19  85 N8        30.21R WCI  13
WADENA         CLEAR     19  16  86 N8        30.18S WCI   9
GLENWOOD       CLEAR     21  18  86 N12       30.16R WCI   9
APPLETON       CLEAR     21  18  86 N13       30.21R WCI   9
BENSON         CLEAR     19  16  86 N9        30.19R WCI   9
ORTONVILLE     CLEAR     21  18  86 NW8       30.22R WCI  12
MADISON        CLEAR     25  19  80 NW12      30.22R WCI  14
WILLMAR        FAIR      25  19  80 N14       30.16R WCI  13
$$
MNZ033>034-036-042>043-049>051-058-059-171000-
   Central Minnesota

CITY           SKY/WX    TMP DP  RH WIND       PRES   REMARKS
ST CLOUD       MOCLDY    27  21  78 N10       30.10R WCI  17
SAUK CENTRE    FAIR      22  18  83 N10       30.16R WCI  11
PAYNESVILLE    CLEAR     24  20  83 NW10G17   30.14R WCI  14
AITKIN         CLOUDY    27  19  74 N13       30.13S WCI  16
PINE RIVER     CLOUDY    25  19  80 N9        30.20S WCI  15
BRAINERD       CLOUDY    29  19  66 N12       30.15S WCI  19
STAPLES        CLEAR     19  18  93 N9        30.17S WCI   9
LONG PRAIRIE   FAIR      21  18  86 NW10      30.16R WCI  10
LITTLE FALLS   MOCLDY    27  19  74 N6        30.14R WCI  20
LITCHFIELD     CLOUDY    27  23  86 NW12      30.12R WCI  16
BUFFALO        CLOUDY    29  24  82 N12       30.09R WCI  19
MAPLE LAKE     CLOUDY    28  25  88 N13       30.10R WCI  17
$$
MNZ037-044-045-052-053-171000-
   East Central Minnesota

CITY           SKY/WX    TMP DP  RH WIND       PRES   REMARKS
PRINCETON      CLOUDY    30  25  80 N12G17    30.09R WCI  21
MORA           CLOUDY    30  25  80 N7        30.10R WCI  23
CAMBRIDGE      CLOUDY    30  25  80 N7        30.06R WCI  23
RUSH CITY      CLOUDY    29  27  92 N13       30.07R WCI  19
MOOSE LAKE     CLOUDY    28  27  93 N8        30.08S WCI  20
HINCKLEY       CLOUDY    30  28  93 N14       30.07S WCI  20
CLOQUET        LGT SNOW  27  25  93 N6        30.10S WCI  20
MCGREGOR       CLOUDY    27  23  86 N9        30.14R WCI  17
$$
MNZ071>073-080-081-089-090-097-098-171000-
   Southwest Minnesota

CITY           SKY/WX    TMP DP  RH WIND       PRES   REMARKS
MONTEVIDEO     CLEAR     21  18  86 N10       30.19S WCI  10
GRANITE FALLS  CLEAR     23  19  83 NW13      30.18S WCI  11
CANBY          CLEAR     21  19  91 NW9       30.22R WCI  10
MARSHALL       CLEAR     23  16  74 NW14      30.17R WCI  11
REDWOOD FALLS  CLEAR     24  19  81 NW12      30.14R WCI  13
OLIVIA         CLEAR     21  19  93 NW8       30.13R WCI  12
PIPESTONE        N/A    N/A N/A N/A N10       30.17R
WINDOM         CLOUDY    27  23  86 NW18G24   30.13R WCI  13
WORTHINGTON    PTCLDY    27  18  69 NW18G26   30.15R WCI  13
JACKSON        CLOUDY    30  25  80 NW21G26   30.11R WCI  17
TRACY          CLEAR     24  20  87 NW13      30.17R WCI  12
SLAYTON          N/A     24  21  91 NW13      30.16R WCI  12
$$
MNZ065>067-074>077-082>085-091>093-171000-
   South Central Minnesota

CITY           SKY/WX    TMP DP  RH WIND       PRES   REMARKS
MANKATO        CLOUDY    30  25  80 N20G25    30.07R WCI  18
NEW ULM        CLOUDY    27  25  93 NW17G23   30.11R WCI  14
ST JAMES       CLOUDY    30  27  86 NW20      30.12R WCI  18
FAIRMONT       CLOUDY    28  25  86 NW22G29   30.10R WCI  15
GLENCOE        CLOUDY    30  24  79 N13G22    30.07R WCI  20
FARIBAULT      CLOUDY    34  28  80 NW17G23   30.01R WCI  23
OWATONNA       CLOUDY    30  28  93 NW17      30.01R WCI  18
WASECA         CLOUDY    34  32  93 NW20G25   30.05R WCI  22
ALBERT LEA     CLOUDY    30  30 100 NW12G22   30.01R WCI  21
$$
MNZ078>079-086>088-094>096-171000-
   Southeast Minnesota

CITY           SKY/WX    TMP DP  RH WIND       PRES   REMARKS
ROCHESTER      FOG       36  34  92 NW22      29.90R VSB 1/2
RED WING       CLOUDY    37  36  93 N10G17    29.95R FOG
STANTON        CLOUDY    32  30  94 N15G23    29.98R WCI  21
DODGE CENTER   CLOUDY    34  34 100 NW16G28   29.94R FOG     WCI  23
WINONA         LGT RAIN  48  36  61 SW3       29.89R
AUSTIN         CLOUDY    30  30 100 NW18G26   29.97R WCI  18
PRESTON        CLOUDY    36  35  96 W22       29.89R FOG
$$
ABBREVIATIONS USED IN REMARKS
   TC - TEMPERATURES IN CELSIUS
  WCI - WIND CHILL INDEX
   HX - HEAT INDEX
  VSB - VISIBILITY
$$


USA.gov is the U.S. government's official web portal to all federal, state and local government web resources and services.